When you browse on this site, cookies collect data to enhance your experience and personalize the content and advertising you see.
Visit our Privacy Policy to learn more. By continuing to use the site, you agree to this use of cookies and data.
  • In Austria
  • List of Countries
  • For 7 days
  • Water Temperature
  • Weather Map
  • News
  • Weather Widgets
  • user-avatar
    Login

    Hourly Weather Zasluchchya

    Today, 25 August, Sunday

    Time Temperature Precipitation Wind Pressure Humidity
    00:00 +15°C° 0 mm 1 mps 756 mmHg 78%
    01:00 +15°C° 0 mm 1 mps 757 mmHg 78%
    02:00 +15°C° 0 mm 2 mps 757 mmHg 82%
    03:00 +14°C° 0 mm 1 mps 757 mmHg 83%
    04:00 +14°C° 0 mm 1 mps 757 mmHg 84%
    05:00 +14°C° 0 mm 1 mps 757 mmHg 85%
    06:00 +15°C° 0 mm 1 mps 757 mmHg 79%
    07:00 +18°C° 0 mm 1 mps 757 mmHg 74%
    08:00 +19°C° 0 mm 2 mps 757 mmHg 69%
    09:00 +21°C° 0 mm 2 mps 757 mmHg 62%
    10:00 +24°C° 0 mm 2 mps 757 mmHg 55%
    11:00 +25°C° 0 mm 2 mps 757 mmHg 49%
    12:00 +26°C° 0 mm 2 mps 757 mmHg 46%
    13:00 +27°C° 0 mm 2 mps 757 mmHg 42%
    14:00 +28°C° 0 mm 2 mps 757 mmHg 39%
    15:00 +27°C° 0 mm 2 mps 757 mmHg 42%
    16:00 +27°C° 0 mm 2 mps 756 mmHg 46%
    17:00 +27°C° 0 mm 2 mps 756 mmHg 49%
    18:00 +24°C° 0 mm 2 mps 756 mmHg 56%
    19:00 +21°C° 0 mm 2 mps 756 mmHg 63%
    20:00 +19°C° 0 mm 2 mps 756 mmHg 70%
    21:00 +18°C° 0 mm 2 mps 756 mmHg 71%
    22:00 +18°C° 0 mm 2 mps 756 mmHg 73%
    23:00 +17°C° 0 mm 2 mps 756 mmHg 74%

    Tomorrow, 26 August, Monday

    Time Temperature Precipitation Wind Pressure Humidity
    00:00 +17°C° 0 mm 2 mps 757 mmHg 76%
    01:00 +16°C° 0 mm 2 mps 757 mmHg 77%
    02:00 +16°C° 0 mm 2 mps 757 mmHg 79%
    03:00 +15°C° 0 mm 2 mps 757 mmHg 82%
    04:00 +15°C° 0 mm 2 mps 757 mmHg 85%
    05:00 +15°C° 0 mm 2 mps 756 mmHg 88%
    06:00 +16°C° 0 mm 2 mps 756 mmHg 83%
    07:00 +18°C° 0 mm 2 mps 757 mmHg 78%
    08:00 +20°C° 0 mm 2 mps 757 mmHg 73%
    09:00 +22°C° 0 mm 3 mps 757 mmHg 66%
    10:00 +25°C° 0 mm 3 mps 757 mmHg 58%
    11:00 +27°C° 0 mm 3 mps 757 mmHg 51%
    12:00 +27°C° 0 mm 3 mps 757 mmHg 49%
    13:00 +28°C° 0 mm 3 mps 756 mmHg 47%
    14:00 +29°C° 0 mm 3 mps 756 mmHg 45%
    15:00 +28°C° 0 mm 3 mps 756 mmHg 48%
    16:00 +28°C° 0 mm 2 mps 756 mmHg 50%
    17:00 +28°C° 0 mm 2 mps 755 mmHg 53%
    18:00 +26°C° 0 mm 2 mps 755 mmHg 60%
    19:00 +24°C° 0 mm 2 mps 755 mmHg 66%
    20:00 +21°C° 0 mm 2 mps 755 mmHg 73%
    21:00 +20°C° 0 mm 2 mps 755 mmHg 76%
    22:00 +19°C° 0 mm 2 mps 755 mmHg 78%
    23:00 +19°C° 0 mm 2 mps 755 mmHg 81%

    Day after tomorrow, 27 August, Tuesday

    Time Temperature Precipitation Wind Pressure Humidity
    00:00 +18°C° 0 mm 2 mps 755 mmHg 82%
    01:00 +18°C° 0 mm 2 mps 755 mmHg 84%
    02:00 +17°C° 0 mm 2 mps 755 mmHg 85%
    03:00 +18°C° 0 mm 1 mps 755 mmHg 87%
    04:00 +16°C° 0 mm 1 mps 755 mmHg 88%
    05:00 +16°C° 0 mm 1 mps 755 mmHg 89%
    06:00 +19°C° 0 mm 1 mps 755 mmHg 83%
    07:00 +20°C° 0 mm 1 mps 756 mmHg 77%
    08:00 +22°C° 0 mm 1 mps 756 mmHg 71%
    09:00 +24°C° 0 mm 2 mps 756 mmHg 64%
    10:00 +25°C° 0 mm 2 mps 756 mmHg 58%
    11:00 +27°C° 0 mm 2 mps 756 mmHg 52%
    12:00 +28°C° 0 mm 2 mps 756 mmHg 49%
    13:00 +28°C° 0 mm 2 mps 755 mmHg 46%
    14:00 +29°C° 0 mm 2 mps 755 mmHg 43%
    15:00 +29°C° 0 mm 2 mps 755 mmHg 46%
    16:00 +28°C° 0 mm 2 mps 755 mmHg 49%
    17:00 +28°C° 0 mm 2 mps 755 mmHg 52%
    18:00 +26°C° 0 mm 2 mps 755 mmHg 60%
    19:00 +24°C° 0 mm 3 mps 755 mmHg 68%
    20:00 +21°C° 0 mm 3 mps 755 mmHg 75%
    21:00 +20°C° 0 mm 2 mps 755 mmHg 77%
    22:00 +19°C° 0 mm 2 mps 755 mmHg 80%
    23:00 +19°C° 0 mm 2 mps 755 mmHg 82%

    28 August, Wednesday

    Time Temperature Precipitation Wind Pressure Humidity
    00:00 +18°C° 0 mm 2 mps 755 mmHg 84%
    01:00 +19°C° 0 mm 1 mps 755 mmHg 86%
    02:00 +18°C° 0 mm 1 mps 755 mmHg 88%
    03:00 +18°C° 0 mm 1 mps 755 mmHg 89%
    04:00 +18°C° 0 mm 1 mps 755 mmHg 91%
    05:00 +16°C° 0 mm 1 mps 755 mmHg 92%
    06:00 +18°C° 0 mm 2 mps 755 mmHg 87%
    07:00 +19°C° 0 mm 2 mps 755 mmHg 81%
    08:00 +21°C° 0 mm 2 mps 755 mmHg 76%
    09:00 +23°C° 0 mm 2 mps 755 mmHg 69%
    10:00 +25°C° 0 mm 2 mps 755 mmHg 62%
    11:00 +27°C° 0 mm 3 mps 755 mmHg 54%
    12:00 +27°C° 0 mm 3 mps 755 mmHg 52%
    13:00 +28°C° 0 mm 3 mps 754 mmHg 49%
    14:00 +28°C° 0 mm 3 mps 754 mmHg 47%
    15:00 +28°C° 0 mm 3 mps 754 mmHg 49%
    16:00 +27°C° 0 mm 3 mps 754 mmHg 52%
    17:00 +27°C° 0 mm 3 mps 754 mmHg 54%
    18:00 +25°C° 0 mm 3 mps 754 mmHg 59%
    19:00 +22°C° 0 mm 3 mps 754 mmHg 63%
    20:00 +20°C° 0 mm 3 mps 754 mmHg 68%
    21:00 +19°C° 0 mm 3 mps 754 mmHg 69%
    22:00 +18°C° 0 mm 3 mps 754 mmHg 70%
    23:00 +17°C° 0 mm 3 mps 754 mmHg 71%

    29 August, Thursday

    Time Temperature Precipitation Wind Pressure Humidity
    00:00 +16°C° 0 mm 3 mps 754 mmHg 74%
    01:00 +16°C° 0 mm 3 mps 754 mmHg 77%
    02:00 +14°C° 0 mm 3 mps 754 mmHg 80%
    03:00 +14°C° 0 mm 3 mps 754 mmHg 83%
    04:00 +13°C° 0 mm 3 mps 754 mmHg 85%
    05:00 +13°C° 0 mm 3 mps 754 mmHg 88%
    06:00 +14°C° 0 mm 3 mps 754 mmHg 83%
    07:00 +16°C° 0 mm 3 mps 754 mmHg 78%
    08:00 +17°C° 0 mm 4 mps 754 mmHg 73%
    09:00 +19°C° 0 mm 4 mps 754 mmHg 66%
    10:00 +21°C° 0 mm 4 mps 755 mmHg 60%
    11:00 +23°C° 0 mm 4 mps 755 mmHg 53%
    12:00 +25°C° 0 mm 4 mps 754 mmHg 52%
    13:00 +25°C° 0 mm 4 mps 754 mmHg 50%
    14:00 +26°C° 0 mm 4 mps 754 mmHg 48%
    15:00 +25°C° 0 mm 4 mps 754 mmHg 49%
    16:00 +25°C° 0 mm 4 mps 754 mmHg 51%
    17:00 +23°C° 0 mm 4 mps 753 mmHg 52%
    18:00 +21°C° 0 mm 4 mps 753 mmHg 55%
    19:00 +19°C° 0 mm 3 mps 753 mmHg 58%
    20:00 +17°C° 0 mm 3 mps 754 mmHg 61%
    21:00 +16°C° 0 mm 3 mps 754 mmHg 61%
    22:00 +14°C° 0 mm 3 mps 754 mmHg 61%
    23:00 +13°C° 0 mm 3 mps 754 mmHg 61%

    30 August, Friday

    Time Temperature Precipitation Wind Pressure Humidity
    00:00 +13°C° 0 mm 3 mps 754 mmHg 62%
    01:00 +12°C° 0 mm 3 mps 754 mmHg 63%
    02:00 +12°C° 0 mm 3 mps 754 mmHg 64%
    03:00 +11°C° 0 mm 3 mps 754 mmHg 65%
    04:00 +11°C° 0 mm 3 mps 754 mmHg 66%
    05:00 +10°C° 0 mm 3 mps 754 mmHg 67%
    06:00 +12°C° 0 mm 3 mps 754 mmHg 63%
    07:00 +13°C° 0 mm 3 mps 754 mmHg 59%
    08:00 +16°C° 0 mm 3 mps 754 mmHg 54%
    09:00 +18°C° 0 mm 3 mps 754 mmHg 49%
    10:00 +20°C° 0 mm 3 mps 755 mmHg 44%
    11:00 +22°C° 0 mm 3 mps 755 mmHg 39%
    12:00 +24°C° 0 mm 3 mps 755 mmHg 38%
    13:00 +25°C° 0 mm 3 mps 755 mmHg 37%
    14:00 +26°C° 0 mm 3 mps 754 mmHg 35%
    15:00 +25°C° 0 mm 3 mps 754 mmHg 39%
    16:00 +25°C° 0 mm 3 mps 754 mmHg 42%
    17:00 +24°C° 0 mm 2 mps 754 mmHg 46%
    18:00 +21°C° 0 mm 2 mps 754 mmHg 52%
    19:00 +19°C° 0 mm 2 mps 755 mmHg 57%
    20:00 +17°C° 0 mm 2 mps 755 mmHg 63%
    21:00 +16°C° 0 mm 2 mps 755 mmHg 64%
    22:00 +15°C° 0 mm 2 mps 755 mmHg 64%
    23:00 +15°C° 0 mm 2 mps 756 mmHg 65%
    Show more